Location: Ponte Samoggia
(44.5667°N, 11.1333°E)
Time: 21:43:28
(UTC+00:00)

Cosmos 1603 - Pass Details

Date: 26 May 2022
Orbit: 829 x 861 km, 71.0° (Epoch: 29 June)

Event Time Altitude Azimuth Distance (km) Brightness Sun altitude
Exits shadow 02:19:30 11° 195° (SSW) 2,350 5.5 -11.7°
Maximum altitude 02:24:50 72° 112° (ESE) 885 3.9 -11.0°
Drops below altitude 10° 02:30:29 10° 29° (NNE) 2,474 7.5 -10.3°
Sets 02:32:57 0° 28° (NNE) 3,419 8.4 -10.0°
